RH
68 80 82 83 77 67 70 78 79 78 79 86 86 86 80 74 66 62 54 49 47 54 44 58 71 83 82 82 82 79 77 79 85 91 90 87 85 86 86 84 78 79 78 75
68 73 80 76 64 61 60 74 70 68 75 75 86 85 79 81 73 60 55 52 44 46 45 44 50 60 67 77 82 84 81 79 78 78 84 89 87 85 86 83 78 76 78 78
66 70 71 66 62 60 60 63 67 71 79 74 78 81 76 69 66 59 59 53 47 43 42 42 44 44 47 58 69 73 78 80 79 79 85 84 91 92 91 86 81 78 74 78
74 68 70 67 65 57 64 54 54 84 86 94 69 77 62 64 68 62 59 52 44 43 43 40 38 38 40 40 41 49 63 63 68 78 82 84 78 80 74 79 79 80 84 82
63 76 77 71 64 59 59 57 62 82 72 73 90 81 66 54 68 57 53 49 43 38 41 40 39 37 34 36 39 48 51 50 61 65 72 69 81 76 72 71 74 77 84 84
69 68 76 70 63 61 51 69 83 90 84 95 77 80 72 67 51 46 44 40 37 33 33 35 37 32 34 34 40 48 60 66 64 65 66 69 69 72 74 73 75 78 78 80
78 72 69 70 71 59 69 83 98 98 98 92 70 82 71 49 46 41 38 32 28 29 31 31 33 34 32 35 38 47 54 63 73 70 74 75 73 72 74 74 72 72 72 72
96 74 79 71 69 70 82 92 93 89 95 94 72 86 66 40 36 37 31 28 28 27 28 28 29 30 33 34 35 43 45 45 53 58 64 64 65 68 73 74 72 72 74 74
97 83 63 71 68 64 80 93 81 98 81 90 81 57 41 36 36 33 35 35 34 32 32 30 29 29 34 34 35 36 36 39 44 48 58 67 69 66 67 72 71 71 76 82
70 96 72 69 73 80 73 72 91 98 96 92 72 63 51 33 35 36 42 37 33 32 34 32 30 29 30 34 35 37 41 45 46 48 50 52 64 74 75 76 76 76 78 82
66 89 79 94 94 87 90 89 78 78 86 91 72 56 46 41 31 39 42 38 36 34 32 32 34 33 34 37 37 40 46 45 42 41 40 40 41 49 67 81 86 87 82 78
67 85 90 87 88 91 86 78 75 87 90 80 80 65 40 49 47 39 45 44 38 34 32 34 39 47 48 48 46 47 46 43 42 42 43 43 44 48 55 60 64 58 47 41
70 96 97 88 95 90 99 87 76 77 82 89 84 64 39 42 54 51 48 44 39 37 36 33 31 31 36 46 48 50 50 49 49 49 50 49 49 51 52 50 46 43 42 44
75 91 92 92 91 98 100 100 82 83 98 84 74 52 38 36 45 51 49 46 42 40 37 35 33 31 29 30 31 34 45 55 55 53 52 51 53 53 52 52 50 59 63 62
82 79 83 87 87 90 96 98 100 99 82 83 68 64 47 40 39 38 42 39 38 37 37 35 34 33 32 32 31 31 39 52 58 58 58 61 64 66 63 61 63 76 74 71
89 90 96 96 70 86 92 80 91 99 98 92 88 88 57 41 36 39 42 44 42 38 36 34 33 34 34 34 36 38 38 46 58 64 67 70 72 68 68 79 84 80 66 53
93 97 93 84 73 92 89 82 74 77 87 94 99 70 54 64 65 58 46 46 46 43 40 38 36 35 36 37 38 40 41 50 58 72 78 81 82 83 81 74 66 60 58 59
87 93 95 97 93 88 58 57 68 72 75 81 82 72 61 55 49 44 52 49 47 43 39 37 36 36 38 39 40 42 47 53 60 69 79 82 80 74 68 63 62 62 63 66
81 90 96 96 93 76 54 60 70 86 73 64 74 66 61 56 56 54 48 47 46 45 44 45 46 44 41 41 40 40 47 55 63 67 73 75 73 70 65 64 64 66 69 71
86 80 84 89 98 95 75 81 68 57 69 69 74 74 66 60 73 64 50 55 55 52 49 47 46 44 44 46 47 45 44 56 60 64 68 73 74 71 67 67 69 71 73 74
82 85 94 96 98 82 92 89 67 63 67 83 74 72 64 65 58 58 58 55 54 54 55 54 51 50 48 49 48 46 47 55 57 68 72 73 74 72 70 72 73 74 77 78
93 91 86 90 100 93 89 74 74 87 87 89 94 83 82 68 62 57 59 61 61 61 58 54 55 56 55 56 53 47 46 54 64 71 73 74 74 74 75 75 75 76 78 79
90 81 86 85 76 83 87 79 85 93 87 87 90 83 77 70 62 63 64 68 69 68 64 57 60 63 61 55 53 53 56 65 70 73 74 75 77 77 78 80 79 78 76 76
67 81 93 85 70 64 69 89 72 69 93 91 91 89 82 68 70 70 70 70 70 70 68 66 64 73 77 73 66 66 68 72 74 74 76 78 79 79 78 80 79 76 75 77
71 66 73 80 65 84 80 59 54 51 60 74 91 93 92 84 76 78 74 75 72 72 71 69 71 72 79 81 78 76 70 74 77 79 79 80 80 80 80 80 78 80 82 82
73 72 75 71 63 68 62 55 63 69 64 73 78 75 94 91 87 81 80 78 74 74 77 78 74 73 75 77 79 81 81 81 82 82 82 82 82 83 80 80 82 84 87 88
Wind_Speed
7 6 4 3 4 2 5 6 10 8 8 3 4 5 16 13 16 14 14 15 13 14 13 16 22 22 26 28 29 28 27 26 26 27 27 26 25 23 20 21 17 18 17 18
6 3 2 5 3 3 5 6 3 6 14 5 10 8 10 12 13 17 17 21 17 22 18 17 18 23 24 25 26 26 27 29 29 28 28 30 28 28 26 23 24 24 23 22
3 4 5 5 3 3 2 2 1 4 10 2 8 4 7 9 20 25 26 28 27 26 27 23 22 21 20 24 26 25 27 30 29 26 28 30 30 30 33 30 32 31 29 26
0 4 2 2 2 1 1 3 5 8 7 3 3 3 4 10 12 14 25 31 30 25 31 26 25 24 23 22 21 23 25 25 29 28 29 31 30 32 31 35 35 32 31 31
4 1 1 2 2 1 3 4 5 6 4 5 2 1 6 1 11 17 19 28 33 29 25 30 30 26 23 24 26 28 27 28 26 26 27 26 29 28 23 26 30 33 32 31
3 3 3 3 2 1 1 5 7 5 3 2 6 5 4 5 8 6 12 29 35 33 32 31 29 25 24 24 29 31 31 30 26 28 26 27 27 26 25 25 25 30 34 32
5 3 3 3 1 3 3 5 2 1 3 4 3 4 7 4 6 7 9 23 20 32 41 37 33 29 24 24 26 30 30 30 29 29 29 27 25 27 27 27 27 25 28 30
3 5 6 4 5 5 4 6 4 6 3 2 2 6 6 6 7 15 17 18 22 21 32 39 35 32 27 23 22 24 27 28 29 29 28 26 26 28 30 30 27 25 26 24
4 5 2 2 1 4 4 3 6 3 1 3 4 6 8 9 7 3 9 10 7 7 16 25 26 28 30 27 24 24 25 27 29 27 28 28 28 29 31 32 30 28 25 22
3 3 2 3 3 1 4 6 4 0 4 4 3 4 5 3 6 2 4 8 6 6 5 8 15 24 26 27 25 24 23 22 23 22 23 22 23 23 23 27 27 25 22 20
3 1 3 0 5 7 3 2 2 4 2 4 2 5 6 7 5 8 8 9 6 3 2 1 5 12 23 29 25 23 20 19 19 19 19 19 19 20 18 16 17 18 17 17
3 3 4 8 3 1 2 2 4 3 4 1 3 5 4 5 7 9 7 6 6 5 3 2 1 2 10 16 20 20 20 20 19 18 17 16 16 15 14 14 15 15 15 14
1 1 2 7 2 1 3 4 7 3 2 5 4 5 3 5 4 8 12 11 9 8 6 6 6 4 6 10 14 19 22 22 21 20 19 17 16 15 15 14 14 13 14 14
2 3 5 5 1 2 6 3 10 11 3 5 9 3 3 2 2 2 3 6 7 6 5 5 3 3 2 3 7 13 18 20 21 21 20 18 17 16 17 17 17 14 16 19
2 6 6 9 9 8 9 8 9 12 11 8 4 8 6 6 5 5 5 3 1 4 6 7 7 4 4 6 6 8 12 19 21 21 22 20 19 20 20 20 20 19 18 19
3 2 2 5 7 7 12 9 10 12 6 13 5 6 5 1 9 6 9 5 8 13 11 12 13 14 14 13 12 11 12 15 20 22 23 21 21 22 21 21 22 20 18 16
2 3 2 4 4 2 3 8 11 9 10 7 10 10 3 2 8 10 13 14 14 13 13 12 14 17 18 18 15 15 14 14 18 20 21 23 23 24 23 22 19 16 15 13
2 1 1 3 4 2 5 0 7 12 5 11 6 6 11 17 24 29 24 21 19 13 15 15 15 16 18 20 20 20 20 17 17 20 21 21 21 20 20 19 16 16 15 14
3 2 2 2 3 5 1 5 3 4 1 1 8 13 15 16 12 13 13 13 12 10 13 15 15 17 20 21 21 21 23 21 17 19 20 20 20 19 18 17 16 15 14 13
1 1 1 2 2 2 1 7 15 2 0 9 15 7 5 9 3 5 9 8 7 8 10 14 15 17 20 19 18 19 23 23 19 19 20 19 18 18 17 15 15 14 14 15
2 2 2 2 3 6 4 11 12 2 3 21 19 13 3 1 4 3 4 4 5 6 9 11 12 13 13 14 18 20 20 21 18 16 17 18 17 17 15 16 16 15 16 17
6 5 3 3 2 6 8 5 3 4 9 15 22 19 15 6 2 1 2 4 5 6 7 8 7 7 8 10 10 15 17 17 17 15 16 18 17 18 19 18 16 16 16 17
3 4 2 6 4 0 3 5 4 6 9 18 25 23 18 10 6 4 4 4 4 5 6 6 4 4 5 8 8 8 11 14 17 15 14 16 17 18 17 16 16 15 15 15
2 1 2 2 0 2 3 2 5 10 12 13 18 25 20 14 11 8 4 4 2 3 4 6 3 2 3 1 4 6 7 8 13 14 13 15 16 16 16 16 16 15 13 13
4 1 3 5 4 3 6 2 8 13 12 13 16 20 24 14 10 9 5 5 2 2 4 6 7 4 2 5 6 7 8 8 10 11 12 13 14 14 15 15 14 14 13 14
6 5 4 4 1 1 7 10 17 19 17 12 15 20 20 13 10 7 5 4 5 2 2 4 6 6 7 5 4 5 6 8 9 10 11 12 13 13 13 14 15 15 13 15
Wind_Direction
348 72 69 352 305 292 121 118 141 165 158 125 173 274 277 308 306 298 291 297 259 222 205 203 217 214 213 216 216 222 220 218 217 211 213 217 219 221 225 222 231 231 240 254
10 57 331 290 322 36 51 123 111 98 158 203 166 234 235 268 269 269 271 274 276 246 226 219 210 211 220 223 222 224 224 224 225 224 226 224 227 232 231 229 234 232 241 243
115 308 330 27 6 15 51 217 218 124 155 243 155 236 211 216 245 256 255 260 267 262 238 227 223 219 217 221 226 230 228 226 229 236 235 232 231 236 236 233 233 238 243 241
126 320 346 47 306 60 193 268 180 129 138 212 274 269 258 215 229 232 240 250 252 258 234 231 225 224 225 223 219 227 232 235 238 237 241 244 244 243 244 241 240 241 241 243
266 328 354 178 208 323 232 19 141 156 147 119 247 191 266 89 222 234 233 243 248 246 242 241 235 237 241 236 231 228 227 233 236 244 245 245 243 243 250 252 248 245 247 246
253 275 215 226 274 270 114 70 46 53 41 234 196 202 257 199 226 238 225 236 244 243 242 241 241 246 246 239 237 235 236 240 239 240 245 247 251 254 254 255 249 245 247 241
330 248 280 213 289 329 91 65 81 279 221 223 221 174 249 203 234 233 224 225 239 248 245 242 238 243 243 236 235 233 239 242 243 245 243 247 249 251 254 255 254 251 253 250
171 316 179 184 202 180 167 164 158 193 201 205 115 218 245 246 264 237 236 253 278 254 237 234 237 240 241 236 231 230 237 244 244 248 250 250 249 249 251 253 255 257 255 249
161 270 271 205 212 151 182 171 161 115 356 61 208 283 302 261 261 201 218 209 233 222 222 228 235 234 236 239 232 234 239 240 241 245 247 250 251 254 253 252 251 249 246 236
214 295 234 257 163 267 178 172 131 61 192 222 232 266 230 263 250 223 185 192 177 150 161 206 225 231 232 234 234 237 242 236 238 244 249 254 258 259 256 251 246 241 234 226
148 116 291 117 206 188 169 183 114 134 143 182 284 257 223 240 224 201 210 195 182 172 182 257 242 228 225 226 226 227 232 236 239 243 247 251 256 258 253 242 229 221 219 227
205 176 248 240 230 338 320 225 182 145 203 319 143 276 350 327 266 194 171 158 141 133 134 147 142 242 222 213 213 220 230 237 244 243 241 241 239 238 235 224 209 203 209 213
188 305 347 317 178 340 251 190 212 131 54 203 155 258 6 357 42 128 146 149 139 132 127 138 138 168 192 212 226 233 235 237 240 241 241 235 224 220 216 212 207 212 219 220
7 185 191 208 215 249 271 257 223 197 193 182 227 198 280 267 5 340 144 151 151 145 147 152 163 158 173 216 236 241 238 234 232 235 234 226 225 224 219 219 211 220 244 254
21 257 238 263 266 213 249 246 254 228 204 190 205 213 251 232 199 192 181 120 14 278 250 257 259 251 262 267 278 274 247 238 235 232 230 230 233 231 227 220 226 253 252 255
12 268 60 287 262 245 250 250 241 233 235 245 257 256 260 48 214 201 187 245 308 308 277 264 257 255 261 273 277 275 268 249 236 231 230 232 232 223 226 241 249 253 250 248
73 23 40 275 319 212 289 226 228 234 223 204 225 239 167 217 291 265 262 264 277 272 262 268 263 260 260 260 267 265 266 258 243 232 226 227 228 234 238 239 237 235 242 250
109 117 199 274 307 231 248 246 224 222 236 225 273 257 223 228 239 264 263 269 275 253 248 244 248 253 253 253 253 250 251 251 246 235 229 229 228 224 221 221 226 234 241 249
120 95 348 352 294 285 72 1 3 170 288 55 258 262 244 237 243 249 248 245 242 237 242 253 258 260 260 259 255 249 243 245 240 230 224 221 218 216 219 222 228 236 246 261
132 217 264 325 324 266 111 305 324 207 110 9 337 319 238 169 186 239 209 208 231 252 266 273 274 269 264 259 256 245 239 235 237 229 220 218 220 222 224 227 234 244 255 264
173 235 212 260 273 287 334 306 327 147 288 327 339 336 46 231 212 130 182 237 266 284 286 286 286 278 268 260 248 237 232 228 234 230 219 219 222 226 227 231 237 248 256 266
169 167 208 188 234 281 345 5 65 311 344 347 349 357 338 330 318 244 243 282 292 296 302 301 293 278 260 255 251 230 227 225 224 223 221 219 221 223 224 230 238 250 262 271
225 196 187 185 222 204 11 117 116 23 7 4 358 347 346 326 315 296 285 301 310 327 337 329 309 310 281 249 243 230 225 225 216 216 219 220 222 222 225 234 244 252 263 275
277 155 225 351 62 341 333 105 14 336 306 329 340 344 338 325 318 295 295 296 332 14 11 16 360 354 10 42 219 211 198 202 206 214 217 219 221 224 229 237 245 252 262 279
213 122 201 264 283 54 149 97 356 342 327 319 300 320 335 323 308 288 278 278 280 33 44 46 53 60 72 74 99 127 149 178 196 208 219 219 224 228 232 237 244 251 266 273
192 196 170 233 217 250 261 281 304 312 313 310 317 305 320 325 306 264 260 282 276 281 57 61 68 74 87 100 134 162 185 199 205 214 219 221 226 231 237 242 247 256 262 270